GW0151 Weather Reports


time (UTC)temp
F
wind
direction
speed
knots
gust
knots
rain 1hr
in
rain 24hr
in
rain mn
in
humidity
%
barometer
mb
20260906051549 66 0 0.0 1.7 0.00 0.02 0.00 94 1016.7
20260906050113 67 0 0.0 3.5 0.00 0.02 0.00 95 1016.7
20260906044552 67 0 0.0 2.6 0.00 0.02 0.00 94 1016.7
20260906043105 67 201 0.0 3.5 0.00 0.02 0.00 95 1016.6
20260906041551 67 97 2.6 6.1 0.00 0.02 0.00 95 1016.4
20260906040048 67 0 0.0 3.5 0.00 0.02 0.00 95 1016.6
20260906034544 67 22 1.7 2.6 0.00 0.02 0.02 94 1016.9
20260906033041 67 0 0.0 0.0 0.00 0.02 0.02 94 1017.3
20260906031549 68 0 0.0 0.0 0.00 0.02 0.02 94 1017.4
20260906030047 68 0 0.0 0.0 0.00 0.02 0.02 93 1017.2
20260906024542 69 0 0.0 0.0 0.00 0.02 0.02 92 1017.0
20260906023044 69 0 0.0 0.0 0.00 0.02 0.02 91 1016.7
20260906021608 70 0 0.0 0.0 0.00 0.02 0.02 91 1016.6
20260906020048 70 0 0.0 0.0 0.00 0.02 0.02 91 1016.7
20260906014543 70 0 0.0 0.0 0.00 0.02 0.02 90 1016.5
20260906013045 71 0 0.0 0.0 0.00 0.02 0.02 90 1016.6
20260906011545 71 0 0.0 0.0 0.00 0.02 0.02 90 1016.2
20260906010044 71 0 0.0 2.6 0.00 0.02 0.02 90 1016.0
20260906004549 71 64 2.6 3.5 0.00 0.02 0.02 89 1016.1
20260906003055 72 44 1.7 3.5 0.00 0.02 0.02 87 1015.8
20260906001546 74 42 0.9 4.3 0.00 0.02 0.02 85 1015.6
20260906000043 75 0 0.0 0.0 0.00 0.02 0.02 82 1015.4
20260905234555 77 0 0.0 3.5 0.00 0.02 0.02 78 1015.4
20260905233043 78 82 1.7 6.1 0.00 0.02 0.02 74 1015.3
20260905231543 79 58 1.7 7.0 0.00 0.02 0.02 73 1015.2
20260905230052 79 88 5.2 9.6 0.00 0.02 0.02 72 1015.0
20260905224544 80 59 6.1 13.9 0.00 0.02 0.02 70 1014.8
20260905223051 81 122 2.6 10.4 0.00 0.02 0.02 69 1015.0
20260905221544 82 75 3.5 8.7 0.00 0.02 0.02 67 1015.0
20260905220044 82 63 3.5 9.6 0.00 0.02 0.02 67 1015.0
20260905214559 81 63 6.1 10.4 0.00 0.02 0.02 70 1015.0
20260905213045 82 61 1.7 7.8 0.00 0.02 0.02 70 1015.0
20260905211544 82 349 0.9 6.1 0.00 0.02 0.02 70 1015.3
20260905210050 81 352 1.7 7.8 0.00 0.02 0.02 69 1015.2
20260905204544 81 5 1.7 7.0 0.00 0.02 0.02 69 1015.3
20260905203054 80 84 1.7 5.2 0.00 0.02 0.02 71 1015.7
20260905201543 79 81 0.9 7.0 0.00 0.02 0.02 73 1015.9
20260905200056 77 0 1.7 7.0 0.00 0.02 0.02 75 1015.9
20260905194552 74 0 0.0 5.2 0.00 0.02 0.02 79 1016.0
20260905193044 74 360 1.7 8.7 0.00 0.02 0.02 81 1016.0
20260905191551 72 81 3.5 7.8 0.00 0.02 0.02 83 1016.2
20260905190053 72 70 6.1 13.9 0.00 0.02 0.02 84 1016.4
20260905184604 72 49 4.3 8.7 0.01 0.02 0.02 83 1016.6
20260905183044 71 40 2.6 10.4 0.02 0.02 0.02 86 1016.5
20260905181550 72 36 4.3 11.3 0.02 0.02 0.02 88 1016.2
20260905180051 73 49 3.5 7.0 0.02 0.02 0.02 86 1016.9
20260905174550 78 25 1.7 13.9 0.01 0.01 0.01 76 1018.1
20260905173055 82 360 3.5 10.4 0.00 0.00 0.00 66 1018.2
20260905171546 84 91 3.5 9.6 0.00 0.00 0.00 65 1018.2
20260905170043 86 11 3.5 11.3 0.00 0.00 0.00 61 1017.9
20260905164543 86 45 6.1 11.3 0.00 0.00 0.00 61 1017.9
20260905163052 85 360 4.3 9.6 0.00 0.00 0.00 67 1017.7
20260905161544 84 304 0.0 4.3 0.00 0.00 0.00 70 1017.8
20260905160052 83 49 2.6 8.7 0.00 0.00 0.00 72 1018.3
20260905154549 83 65 3.5 10.4 0.00 0.00 0.00 71 1018.3
20260905153055 83 62 6.1 13.0 0.00 0.00 0.00 71 1018.1
20260905151551 82 22 5.2 12.2 0.00 0.00 0.00 72 1017.8
20260905150051 82 87 3.5 11.3 0.00 0.00 0.00 73 1017.8
20260905144551 82 22 3.5 9.6 0.00 0.00 0.00 73 1017.9
20260905143053 82 62 3.5 7.0 0.00 0.00 0.00 73 1017.9
20260905141607 80 340 1.7 6.1 0.00 0.00 0.00 77 1017.8
20260905140103 79 17 5.2 11.3 0.00 0.00 0.00 78 1017.8
20260905134554 77 10 3.5 8.7 0.00 0.00 0.00 81 1018.0
20260905133056 75 13 3.5 7.8 0.00 0.00 0.00 87 1018.1
20260905131554 74 16 2.6 7.0 0.00 0.00 0.00 88 1018.1
20260905130042 73 61 3.5 7.8 0.00 0.00 0.00 89 1018.5
20260905124542 72 20 4.3 8.7 0.00 0.00 0.00 90 1018.5
20260905123055 72 22 6.1 8.7 0.00 0.00 0.00 90 1018.5
20260905121544 71 18 6.1 9.6 0.00 0.00 0.00 92 1018.3
20260905120043 70 18 2.6 7.0 0.00 0.00 0.00 95 1018.0
20260905114623 69 15 3.5 6.1 0.00 0.00 0.00 95 1018.0
20260905113044 68 36 2.6 7.0 0.00 0.00 0.00 96 1017.8
20260905111554 68 46 3.5 6.1 0.00 0.00 0.00 97 1017.6
20260905110052 67 51 3.5 7.8 0.00 0.00 0.00 97 1017.3
20260905104548 67 34 3.5 7.0 0.00 0.00 0.00 97 1017.3
20260905103045 67 37 2.6 7.8 0.00 0.00 0.00 97 1017.4
20260905101543 67 56 4.3 8.7 0.00 0.00 0.00 97 1017.3
20260905100057 68 46 2.6 7.8 0.00 0.00 0.00 96 1017.1
20260905094603 68 43 3.5 8.7 0.00 0.00 0.00 96 1017.2
20260905093044 68 33 2.6 7.0 0.00 0.00 0.00 95 1017.2
20260905091555 69 27 3.5 7.0 0.00 0.00 0.00 97 1017.1
20260905090047 68 40 0.9 7.0 0.00 0.00 0.00 96 1017.1
20260905084543 68 27 4.3 7.8 0.00 0.00 0.00 96 1017.3
20260905083042 68 28 1.7 5.2 0.00 0.00 0.00 96 1017.4
20260905081550 69 22 0.9 4.3 0.00 0.00 0.00 96 1017.6
20260905080048 69 22 1.7 7.0 0.00 0.00 0.00 96 1017.7
20260905074555 69 23 0.9 6.1 0.00 0.00 0.00 96 1017.9
20260905073059 69 16 1.7 4.3 0.00 0.00 0.00 96 1018.0
20260905071541 69 0 0.9 6.1 0.00 0.00 0.00 96 1018.1
20260905070051 69 16 0.9 4.3 0.00 0.00 0.00 96 1018.3
20260905063059 69 0 0.0 0.0 0.00 0.00 0.00 96 1018.5
20260905061613 69 0 0.0 0.0 0.00 0.00 0.00 96 1018.9
20260905060053 69 0 0.0 0.0 0.00 0.00 0.00 96 1019.1
20260905054548 70 0 0.0 0.0 0.00 0.00 0.00 96 1019.3
20260905053046 70 0 0.0 0.0 0.00 0.00 0.00 96 1019.5